Weather History for Ozark, AL

Change the Weather History Date:

Wednesday, August 14, 2013

  Actual Average Record
Temperature  
Mean Temperature 80 °F -  
Max Temperature 89 °F 87 °F 100 °F (1999)
Min Temperature 71 °F 68 °F 62 °F (2004)
Cooling Degree Days 14    
Growing Degree Days 30 (Base 50)    
Moisture  
Dew Point 73 °F    
Average Humidity 90    
Maximum Humidity 100    
Minimum Humidity 59    
Precipitation  
Precipitation 0.72 in - - ()
Sea Level Pressure  
Sea Level Pressure 29.94 in    
Wind  
Wind Speed 4 mph (NNW)    
Max Wind Speed 10 mph    
Max Gust Speed -    
Visibility 9 miles    
Events Fog , Rain , Thunderstorm    
Averages and records for this station are not official NWS values.
T = Trace of Precipitation, MM = Missing Value Source: NWS Daily Summary

Daily Weather History Graph

Daily Weather History Graph

Search for Another Location

Airport:

Trip Planner

Search our weather history database for the weather conditions in past years. The results will help you decide how hot, cold, wet, or windy it might be!

Date:

Astronomy

Aug. 14, 2013 Rise Set
Actual Time 6:07 AM CDT 7:26 PM CDT
Civil Twilight 5:42 AM CDT 7:51 PM CDT
Nautical Twilight 5:11 AM CDT 8:22 PM CDT
Astronomical Twilight 4:40 AM CDT 8:53 PM CDT
Moon 1:33 PM CDT (8/14) No Moon Set
Length of Visible Light 14h 09m
Length of Day
13h 18m
First Quarter, 53% of the Moon is Illuminated
Aug 14
First Quarter
Aug 20
Full
Aug 28
Last Quarter
Sep 5
New
Sep 12
First Quarter

Hourly Weather History & Observations

Time (CDT) Temp. Heat Index Dew Point Humidity Pressure Visibility Wind Dir Wind Speed Gust Speed Precip Events Conditions
12:58 AM 73.6 °F - 72.7 °F 97% 29.96 in 10.0 mi SSW 5.8 mph - N/A   Partly Cloudy
1:58 AM 73.2 °F - 72.7 °F 98% 29.94 in 10.0 mi SW 3.5 mph - N/A   Clear
2:43 AM 73.4 °F - 73.4 °F 100% 29.95 in 10.0 mi WSW 4.6 mph - N/A   Mostly Cloudy
2:58 AM 73.2 °F - 72.9 °F 99% 29.94 in 10.0 mi NW 1.2 mph - N/A   Overcast
3:03 AM 73.4 °F - 73.4 °F 100% 29.94 in 10.0 mi West 1.2 mph - N/A   Overcast
3:08 AM 73.4 °F - 73.4 °F 100% 29.94 in 10.0 mi WSW 2.3 mph - N/A   Overcast
3:23 AM 73.4 °F - 73.4 °F 100% 29.94 in 10.0 mi WNW 4.6 mph - N/A   Mostly Cloudy
3:27 AM 73.4 °F - 73.4 °F 100% 29.94 in 10.0 mi WNW 4.6 mph - N/A   Overcast
3:57 AM 73.4 °F - 73.4 °F 100% 29.94 in 8.0 mi WNW 3.5 mph - N/A   Overcast
3:58 AM 73.4 °F - 73.4 °F 100% 29.94 in 8.0 mi WNW 3.5 mph - N/A   Overcast
4:43 AM 73.4 °F - 73.4 °F 100% 29.95 in 7.0 mi West 3.5 mph - N/A   Mostly Cloudy
4:58 AM 73.8 °F - 73.4 °F 99% 29.95 in 7.0 mi West 3.5 mph - N/A   Mostly Cloudy
5:43 AM 73.4 °F - 73.4 °F 100% 29.96 in 8.0 mi West 2.3 mph - N/A   Mostly Cloudy
5:58 AM 74.1 °F - 73.8 °F 99% 29.96 in 7.0 mi Calm Calm - N/A   Overcast
6:18 AM 73.4 °F - 73.4 °F 100% 29.97 in 7.0 mi WNW 1.2 mph - N/A   Overcast
6:32 AM 73.4 °F - 73.4 °F 100% 29.97 in 8.0 mi Calm Calm - N/A   Overcast
6:42 AM 75.2 °F - 73.4 °F 94% 29.97 in 7.0 mi Calm Calm - N/A   Overcast
6:58 AM 74.7 °F - 74.3 °F 99% 29.96 in 9.0 mi West 3.5 mph - N/A   Overcast
7:08 AM 75.2 °F - 75.2 °F 100% 29.96 in 9.0 mi WNW 2.3 mph - N/A   Overcast
7:18 AM 75.2 °F - 75.2 °F 100% 29.96 in 10.0 mi WNW 2.3 mph - N/A   Overcast
7:38 AM 75.2 °F - 75.2 °F 100% 29.96 in 10.0 mi Calm Calm - N/A   Overcast
7:58 AM 76.1 °F - 74.1 °F 94% 29.96 in 10.0 mi NW 3.5 mph - N/A   Overcast
8:58 AM 77.9 °F - 74.1 °F 88% 29.96 in 10.0 mi ESE 3.5 mph - N/A   Mostly Cloudy
9:28 AM 78.8 °F - 73.4 °F 83% 29.96 in 10.0 mi Variable 3.5 mph - N/A   Overcast
9:53 AM 78.8 °F - 73.4 °F 83% 29.97 in 10.0 mi WNW 2.3 mph - N/A   Mostly Cloudy
9:58 AM 79.3 °F - 73.9 °F 83% 29.97 in 10.0 mi Calm Calm - N/A   Mostly Cloudy
10:03 AM 80.6 °F 85.4 °F 73.4 °F 79% 29.96 in 10.0 mi Variable 2.3 mph - N/A   Mostly Cloudy
10:23 AM 80.6 °F 85.4 °F 73.4 °F 79% 29.97 in 10.0 mi Variable 1.2 mph - N/A   Scattered Clouds
10:48 AM 82.4 °F 89.5 °F 75.2 °F 79% 29.97 in 10.0 mi SSW 3.5 mph - N/A   Mostly Cloudy
10:53 AM 84.2 °F 92.3 °F 75.2 °F 74% 29.97 in 10.0 mi Variable 2.3 mph - N/A   Mostly Cloudy
10:58 AM 83.7 °F 91.0 °F 74.5 °F 74% 29.97 in 10.0 mi Variable 3.5 mph - N/A   Mostly Cloudy
11:03 AM 84.2 °F 92.3 °F 75.2 °F 74% 29.97 in 10.0 mi Variable 2.3 mph - N/A   Mostly Cloudy
11:13 AM 84.2 °F 92.3 °F 75.2 °F 74% 29.96 in 10.0 mi Variable 3.5 mph - N/A   Mostly Cloudy
11:58 AM 84.0 °F 91.2 °F 74.3 °F 72% 29.96 in 10.0 mi WSW 2.3 mph - N/A   Mostly Cloudy
12:58 PM 84.9 °F 92.9 °F 74.5 °F 71% 29.94 in 10.0 mi Variable 3.5 mph - N/A   Mostly Cloudy
1:58 PM 86.0 °F 93.8 °F 73.9 °F 67% 29.93 in 10.0 mi Variable 4.6 mph - N/A   Scattered Clouds
2:58 PM 88.5 °F 95.8 °F 72.5 °F 59% 29.90 in 10.0 mi SW 10.4 mph - N/A   Partly Cloudy
3:58 PM 88.2 °F 96.4 °F 73.6 °F 62% 29.89 in 10.0 mi Variable 5.8 mph - N/A   Partly Cloudy
4:58 PM 86.0 °F 94.6 °F 74.7 °F 69% 29.89 in 10.0 mi West 5.8 mph - N/A Thunderstorm Mostly Cloudy
5:38 PM 80.6 °F 84.6 °F 71.6 °F 74% 29.90 in 10.0 mi North 6.9 mph - N/A Thunderstorm Thunderstorm
5:43 PM 80.6 °F 84.6 °F 71.6 °F 74% 29.90 in 10.0 mi NNE 5.8 mph - N/A Thunderstorm Thunderstorm
5:48 PM 80.6 °F 84.6 °F 71.6 °F 74% 29.91 in 10.0 mi Variable 4.6 mph - N/A Thunderstorm Thunderstorm
5:58 PM 80.2 °F 84.2 °F 72.0 °F 76% 29.90 in 10.0 mi East 9.2 mph - N/A Thunderstorm Thunderstorm
6:13 PM 78.8 °F - 71.6 °F 78% 29.91 in 10.0 mi SE 8.1 mph - N/A Thunderstorm Thunderstorm
6:15 PM 78.8 °F - 71.6 °F 78% 29.91 in 10.0 mi SSE 8.1 mph - N/A Rain , Thunderstorm Light Thunderstorms and Rain
6:25 PM 77.0 °F - 71.6 °F 83% 29.92 in 1.2 mi SSE 5.8 mph - N/A Rain , Thunderstorm Heavy Thunderstorms and Rain
6:30 PM 75.2 °F - 73.4 °F 94% 29.92 in 0.2 mi Variable 2.3 mph - N/A Fog , Rain , Thunderstorm Heavy Thunderstorms and Rain
6:35 PM 75.2 °F - 73.4 °F 94% 29.91 in 0.2 mi NNE 5.8 mph - N/A Fog , Rain , Thunderstorm Heavy Thunderstorms and Rain
6:40 PM 75.2 °F - 73.4 °F 94% 29.91 in 0.8 mi East 5.8 mph - N/A Rain , Thunderstorm Light Thunderstorms and Rain
6:45 PM 75.2 °F - 73.4 °F 94% 29.92 in 5.0 mi East 4.6 mph - N/A Rain , Thunderstorm Light Thunderstorms and Rain
6:50 PM 73.4 °F - 73.4 °F 100% 29.93 in 8.0 mi ENE 8.1 mph - N/A Rain , Thunderstorm Light Thunderstorms and Rain
6:55 PM 73.4 °F - 73.4 °F 100% 29.93 in 9.0 mi NE 8.1 mph - N/A Rain , Thunderstorm Light Thunderstorms and Rain
6:58 PM 74.1 °F - 73.2 °F 97% 29.93 in 9.0 mi ENE 8.1 mph - 0.64 in Rain , Thunderstorm Light Thunderstorms and Rain
7:18 PM 73.4 °F - 73.4 °F 100% 29.92 in 6.0 mi ENE 2.3 mph - N/A Rain , Thunderstorm Light Thunderstorms and Rain
7:25 PM 73.4 °F - 73.4 °F 100% 29.92 in 7.0 mi NNE 1.2 mph - N/A Rain Light Rain
7:40 PM 73.4 °F - 73.4 °F 100% 29.93 in 10.0 mi ENE 1.2 mph - N/A Rain Light Rain
7:41 PM 73.4 °F - 73.4 °F 100% 29.93 in 10.0 mi Calm Calm - N/A   Partly Cloudy
7:58 PM 73.6 °F - 72.7 °F 97% 29.94 in 10.0 mi ENE 2.3 mph - 0.04 in   Scattered Clouds
8:58 PM 72.9 °F - 72.3 °F 98% 29.96 in 10.0 mi East 3.5 mph - N/A   Mostly Cloudy
9:58 PM 72.1 °F - 71.6 °F 98% 29.96 in 10.0 mi East 4.6 mph - N/A   Scattered Clouds
10:02 PM 71.6 °F - 71.6 °F 100% 29.97 in 10.0 mi ENE 3.5 mph - N/A   Light Drizzle
10:17 PM 71.6 °F - 71.6 °F 100% 29.97 in 10.0 mi East 3.5 mph - N/A   Partly Cloudy
10:28 PM 71.6 °F - 71.6 °F 100% 29.97 in 10.0 mi NNE 4.6 mph - N/A   Light Drizzle
10:58 PM 72.3 °F - 71.8 °F 98% 29.97 in 7.0 mi East 4.6 mph - 0.00 in Rain Light Rain
11:35 PM 73.4 °F - 71.6 °F 94% 29.97 in 10.0 mi West 2.3 mph - N/A   Mostly Cloudy
11:39 PM 73.4 °F - 71.6 °F 94% 29.97 in 10.0 mi WNW 3.5 mph - N/A Rain Light Rain
11:46 PM 73.4 °F - 71.6 °F 94% 29.97 in 10.0 mi North 5.8 mph - N/A Rain Light Rain
11:57 PM 73.4 °F - 71.6 °F 94% 29.97 in 10.0 mi NE 2.3 mph - N/A   Overcast
11:58 PM 73.4 °F - 71.6 °F 94% 29.97 in 10.0 mi NE 2.3 mph - 0.04 in   Overcast